{"data":{"norad_id":34713,"intl_designator":"2009-017A","name":"WGS F2 (USA 204)","alt_names":[],"object_type":"PAYLOAD","status":"ACTIVE","operator":null,"country":"US","launch_date":"2009-04-04","launch_site_code":"AFETR","launch_vehicle":null,"mission":null,"orbit_class":"UNKNOWN","rcs_meters":5.0119,"size_class":null,"mass_kg":null,"dimensions":null,"purposes":["comms"],"wikipedia_slug":null,"has_3d_model":false,"image_url":null,"decayed_at":null,"tle_current":{"epoch":"2026-05-25T04:01:00.691104Z","epoch_age_seconds":54474,"freshness":"FRESH","line1":"1 34713U 09017A   26145.16736911  .00000066  00000+0  00000+0 0  9997","line2":"2 34713   0.0180 330.7728 0001290 256.8339 132.9166  1.00271466 45382","mean_motion":1.00271466,"eccentricity":0.000129,"inclination_deg":0.018,"raan_deg":330.7728,"arg_perigee_deg":256.8339,"mean_anomaly_deg":132.9166,"bstar":0,"rev_number":4538,"period_min":1436.1014727759,"perigee_km":35781.245126749,"apogee_km":35792.123650667,"semimajor_km":42164.821388708,"source":"CELESTRAK","updated_at":"2026-05-25T13:38:13.863506Z"}}}